Palembang / Talangbetutu, Indonesia

8:37 PM WIB on February 24, 2017 (GMT +0700)
Sultan M Badaruddin Ii

Weather History for WIPP - January, 2013

Change the Weather History Date:

Wednesday, January 9, 2013

  Actual Average Record
Temperature  
Mean Temperature 82 °F -  
Max Temperature 89 °F - - ()
Min Temperature 75 °F - - ()
Cooling Degree Days 17    
Growing Degree Days 32 (Base 50)    
Moisture  
Dew Point 74 °F    
Average Humidity 81    
Maximum Humidity 100    
Minimum Humidity 59    
Precipitation  
Precipitation 0.00 in - - ()
Sea Level Pressure  
Sea Level Pressure 29.79 in    
Wind  
Wind Speed 5 mph ()    
Max Wind Speed 14 mph    
Max Gust Speed -    
Visibility 4.7 miles    
Events Rain    
T = Trace of Precipitation, MM = Missing Value Source: Averaged Metar Reports

Daily Weather History Graph

Daily Weather History Graph

Search for Another Location

Airport or City:

Trip Planner

Search our weather history database for the weather conditions in past years. The results will help you decide how hot, cold, wet, or windy it might be!

Date:

Astronomy

Jan. 09, 2013 Rise Set
Actual Time 5:59 AM WIB 6:16 PM WIB
Civil Twilight 5:37 AM WIB 6:39 PM WIB
Nautical Twilight 5:11 AM WIB 7:05 PM WIB
Astronomical Twilight 4:45 AM WIB 7:31 PM WIB
Moon 3:06 AM WIB (1/9) 3:44 PM WIB (1/9)
Length of Visible Light 13h 01m
Length of Day
12h 16m
Waning Crescent, 10% of the Moon is Illuminated
Jan 9
Waning Crescent
Jan 12
New
Jan 19
First Quarter
Jan 27
Full
Feb 3
Last Quarter

Hourly Weather History & Observations

Time (WIB) Temp. Heat Index Dew Point Humidity Pressure Visibility Wind Dir Wind Speed Gust Speed Precip Events Conditions
1:00 AM 79 °F - 78 °F 94% 29.79 in 3 mi WSW 3.5 mph - -   Mist
4:00 AM 77 °F - 75 °F 90% 29.76 in 2 mi Calm Calm - -   Haze
5:30 AM 75.2 °F - 75.2 °F 100% 29.77 in 3.1 mi Calm Calm - N/A   Haze
6:00 AM 77.0 °F - 75.2 °F 94% 29.77 in 2.5 mi Calm Calm - N/A   Haze
6:30 AM 77.0 °F - 75.2 °F 94% 29.77 in 1.9 mi Calm Calm - N/A   Haze
7:00 AM 77 °F - 75 °F 92% 29.80 in 1 mi Calm Calm - -   Mist
7:00 AM 77.0 °F - 75.2 °F 94% 29.80 in 1.2 mi Calm Calm - N/A   Partly Cloudy
8:00 AM 80.6 °F 87.1 °F 77.0 °F 89% 29.80 in 6.2 mi WNW 6.9 mph - N/A   Mostly Cloudy
9:00 AM 82.4 °F 90.9 °F 77.0 °F 84% 29.83 in 6.2 mi NW 6.9 mph - N/A   Mostly Cloudy
10:00 AM 85 °F - 77 °F 71% 29.83 in 6 mi NW 9.2 mph - -   Partly Cloudy
11:30 AM 87.8 °F 99.7 °F 77.0 °F 70% 29.80 in 6.2 mi WNW 11.5 mph - N/A   Mostly Cloudy
12:00 PM 89.6 °F 99.8 °F 75.2 °F 62% 29.80 in 6.2 mi West 9.2 mph - N/A   Mostly Cloudy
12:30 PM 87.8 °F 97.6 °F 75.2 °F 66% 29.80 in 6.2 mi WNW 9.2 mph - N/A   Mostly Cloudy
1:00 PM 88 °F - 76 °F 59% 29.79 in 6 mi West 10.4 mph - -   Overcast
1:00 PM 87.8 °F 97.6 °F 75.2 °F 66% 29.77 in 6.2 mi West 10.4 mph - N/A   Mostly Cloudy
1:30 PM 89.6 °F 99.8 °F 75.2 °F 62% 29.77 in 6.2 mi West 11.5 mph - N/A   Mostly Cloudy
2:00 PM 89.6 °F 98.2 °F 73.4 °F 59% 29.74 in 6.2 mi WNW 9.2 mph - N/A   Mostly Cloudy
3:00 PM 87.8 °F 95.6 °F 73.4 °F 62% 29.74 in 6.2 mi West 6.9 mph - N/A   Mostly Cloudy
3:30 PM 86.0 °F 93.4 °F 73.4 °F 66% 29.74 in 6.2 mi WSW 6.9 mph - N/A   Mostly Cloudy
4:00 PM 82 °F - 73 °F 69% 29.75 in 6 mi SW 13.8 mph - -   Overcast
4:00 PM 82.4 °F 88.2 °F 73.4 °F 74% 29.74 in 6.2 mi SW 11.5 mph - N/A   Scattered Clouds
4:30 PM 80.6 °F 85.4 °F 73.4 °F 79% 29.77 in 6.2 mi SW 12.7 mph - N/A   Scattered Clouds
5:00 PM 78.8 °F - 71.6 °F 78% 29.77 in 6.2 mi SW 11.5 mph - N/A   Scattered Clouds
5:30 PM 78.8 °F - 71.6 °F 78% 29.77 in 6.2 mi WSW 9.2 mph - N/A   Scattered Clouds
6:00 PM 78.8 °F - 71.6 °F 78% 29.77 in 6.2 mi SW 6.9 mph - N/A   Scattered Clouds
6:30 PM 77.0 °F - 73.4 °F 89% 29.80 in 3.7 mi SW 4.6 mph - N/A   Scattered Clouds
7:00 PM 78 °F - 74 °F 84% 29.82 in 6 mi NW 12.7 mph - -   Partly Cloudy
7:00 PM 77.0 °F - 73.4 °F 89% 29.80 in 6.2 mi NW 8.1 mph - N/A   Partly Cloudy
7:30 PM 75.2 °F - 71.6 °F 89% 29.83 in 3.7 mi WNW 8.1 mph - N/A Rain Light Rain
8:00 PM 75.2 °F - 73.4 °F 94% 29.83 in 3.7 mi SSE 3.5 mph - N/A   Scattered Clouds
8:30 PM 75.2 °F - 73.4 °F 94% 29.83 in 4.3 mi Calm Calm - N/A   Scattered Clouds
9:00 PM 75.2 °F - 71.6 °F 89% 29.86 in 4.3 mi WNW 3.5 mph - N/A   Scattered Clouds
9:30 PM 75.2 °F - 73.4 °F 94% 29.86 in 4.3 mi Calm Calm - N/A   Scattered Clouds
10:00 PM 75 °F - 72 °F 89% 29.87 in 1 mi Calm Calm - -   Haze
10:00 PM 75.2 °F - 73.4 °F 94% 29.86 in 1.2 mi Calm Calm - N/A   Haze